Content
SEND FEEDBACK

Daily
Averages
Monthly
Summary
Argentina

PASO DE LOS LIBRES, ARGENTINA


Home > South America > Argentina
Elevation: 230 feet     Latitude: 29 41S     Longitude: 057 09W

WEATHER
 
SELECT A DAY
Number of Records: 108,233;   Date Range: 6/30/96 - 7/23/14
 
SHARE

PRINT THIS DATA

[ ← Previous Day ]
WEATHER ALMANAC - FEBRUARY 13, 2013
[ Next Day → ]
[ °C ]   °F
Weather ElementAverageHighLow
Temperature84.1 °F96.8 °F (4:00 pm)73.4 °F (6:00 am)
Dewpoint71 °F74 °F (9:00 am)68 °F (7:00 pm)
Humidity66.2 %94 % (6:00 am)36 % (3:00 pm)
Barometer29.74 in29.80 in (11:00 am)29.68 in (4:00 pm)
Wind Speed6.3 mph17.3 mph (6:00 pm)
Weather ElementAverage
Visibility6.3 mi
Wind DirectionSE (133.6 °)

Weather ElementTotal
Precipitation---
Cooling Degree Days20.1 (Base 65)
Growing Degree Days35.1 (Base 50)
Averaged from 26 records on February 13, 2013
WEATHER CONDITIONS BREAKOUT
WIND DIRECTION BREAKOUT
WEATHER BY HOUR - FEBRUARY 13, 2013
[ °C ]   °F
Local TimeTemperatureDewpointHumidityBarometerVisibilityWind DirectionWind SpeedGust SpeedPrecipitationEventsConditions
1:00 AM78.8 °F73.4 °F83 %29.74 in6.2 miNorth (360°)3.5 mphMostly Cloudy
2:00 AM77.0 °F73.4 °F89 %29.74 in6.2 miCalmScattered Clouds
3:00 AM76.0 °F73.0 °F88 %29.72 in7.0 miNorth3.5 mphPartly Cloudy
3:00 AM77.0 °F73.4 °F89 %29.71 in6.2 miNorth (360°)3.5 mphScattered Clouds
4:00 AM75.2 °F71.6 °F89 %29.71 in6.2 miCalmScattered Clouds
5:00 AM75.2 °F71.6 °F89 %29.74 in6.2 miNNW (340°)2.3 mphScattered Clouds
6:00 AM73.4 °F71.6 °F94 %29.74 in6.2 miNE (50°)3.5 mphScattered Clouds
7:00 AM73.4 °F71.6 °F94 %29.77 in6.2 miCalmScattered Clouds
8:00 AM80.6 °F73.4 °F79 %29.77 in6.2 miCalmScattered Clouds
9:00 AM82.0 °F74.0 °F69 %29.78 in7.0 miCalmScattered Clouds
9:00 AM82.4 °F73.4 °F74 %29.77 in6.2 miCalmPartly Cloudy
11:00 AM91.4 °F71.6 °F52 %29.80 in6.2 miNorth (360°)4.6 mphScattered Clouds
12:00 PM91.4 °F69.8 °F49 %29.77 in6.2 miNorth (360°)4.6 mph
1:00 PM93.2 °F69.8 °F46 %29.74 in6.2 miNorth (360°)3.5 mphMostly Cloudy
2:00 PM95.0 °F69.8 °F44 %29.74 in6.2 miNorth (360°)13.8 mphMostly Cloudy
3:00 PM94.0 °F70.0 °F36 %29.70 in7.0 miNE (50°)11.5 mphMostly Cloudy
3:00 PM93.2 °F69.8 °F46 %29.71 in6.2 miNE (50°)11.5 mphPartly Cloudy
4:00 PM96.8 °F69.8 °F41 %29.68 in6.2 miNE (50°)13.8 mphMostly Cloudy
5:00 PM95.0 °F69.8 °F44 %29.68 in6.2 miNE (50°)13.8 mphScattered Clouds
6:00 PM87.8 °F73.4 °F62 %29.68 in6.2 miSouth (180°)17.3 mphPartly Cloudy
7:00 PM86.0 °F68.0 °F55 %29.71 in6.2 miSE (140°)17.3 mphPartly Cloudy
8:00 PM84.2 °F68.0 °F58 %29.71 in6.2 miEast (90°)13.8 mphMostly Cloudy
9:00 PM82.0 °F68.0 °F54 %29.74 in7.0 miEast (90°)11.5 mphScattered Clouds
9:00 PM82.4 °F68.0 °F62 %29.74 in6.2 miEast (90°)11.5 mphScattered Clouds
10:00 PM82.4 °F69.8 °F66 %29.77 inCalmClear
11:00 PM80.6 °F69.8 °F70 %29.77 inCalmClear
Hourly data recorded from SARL, located miles away from Paso de los Libres, Argentina







STORIES FROM OUR PARTNERS